Home   Weather   Port Coquitlam   Past weeks

Flag for Canada Past Weather in Port Coquitlam, British Columbia, Canada — Yesterday and Last 2 Weeks

Now
38 °F

Chilly.


Feels Like: 38 °F
Forecast: 40 / 48 °F
Wind: 1 mph from East

Location: P. Meadows Coastal Station

Current Time: Jan 21, 2017 at 5:25:45 am

Latest Report: Jan 21, 2017 at 4:00 am


Visibility: N/A

Pressure: 29.28 "Hg

Humidity: 93%

Dew Point: 36 °F

Location of Port CoquitlamLocation

Past Weather in Port Coquitlam — Graph

°F

Port Coquitlam Temperature Yesterday

Maximum temperature yesterday: 50 °F (at 3:00 pm)
Minimum temperature yesterday: 33 °F (at 7:00 am)
Average temperature yesterday: 41 °F

High & Low Weather Summary for the Past Weeks

 TemperatureHumidityPressure
High52 °F (Jan 18, 3:00 pm)100% (Jan 18, 3:00 am)30.49 "Hg (Jan 18, 3:00 am)
Low15 °F (Jan 12, 6:00 am)38% (Jan 11, 2:00 am)29.13 "Hg (Jan 20, 3:00 pm)
Average33 °F83%29.86 "Hg
* Reported Jan 6 4:00 am — Jan 21 4:00 am, Port Coquitlam, Weather by CustomWeather, © 2017

Note: Actual official high and low records may vary slightly from our data, if they occured in-between our weather recording intervals... More about our weather records

Advertising

Port Coquitlam Weather History for the Previous 24 Hours

Scroll right to see more
 ConditionsComfort  
Time TempWeatherWind HumidityBarometerVisibility
4:00 am
Sat, Jan 21
38 °FChilly.1 mph93%29.28 "HgN/A
3:00 am38 °FChilly.No wind92%29.27 "HgN/A
2:00 am38 °FChilly.No wind91%29.25 "HgN/A
1:00 am38 °FChilly.1 mph89%29.23 "HgN/A
12:00 am39 °FChilly.2 mph88%29.21 "HgN/A
11:00 pm
Fri, Jan 20
41 °FQuite cool.3 mph83%29.21 "HgN/A
10:00 pm40 °FChilly.1 mph86%29.21 "HgN/A
9:00 pm41 °FQuite cool.2 mph80%29.19 "HgN/A
8:00 pm40 °FQuite cool.1 mph85%29.17 "HgN/A
7:00 pm42 °FQuite cool.1 mph75%29.15 "HgN/A
6:00 pm45 °FQuite cool.2 mph73%29.14 "HgN/A
5:00 pm45 °FCool.1 mph73%29.13 "HgN/A
4:00 pm47 °FCool.2 mph72%29.13 "HgN/A
3:00 pm50 °FCool.1 mph70%29.13 "HgN/A
2:00 pm47 °FCool.2 mph77%29.13 "HgN/A
1:00 pm46 °FCool.1 mph81%29.15 "HgN/A
12:00 pm43 °FQuite cool.2 mph84%29.17 "HgN/A
11:00 am42 °FQuite cool.No wind88%29.20 "HgN/A
10:00 am39 °FChilly.1 mph91%29.21 "HgN/A
9:00 am36 °FChilly.No wind95%29.22 "HgN/A
8:00 am34 °FChilly.No wind95%29.23 "HgN/A
7:00 am33 °FChilly.1 mph94%29.26 "HgN/A
6:00 am36 °FChilly.3 mph91%29.28 "HgN/A
5:00 am39 °FChilly.9 mph90%29.31 "HgN/A
Weather by CustomWeather, © 2017

See weather overviewHow to use our weather pages